Current weather by "City, St" or "zip code"  
 

Current Conditions: Albany International Airport, NY

A Few Clouds


60.0 F

Last Updated on Oct 23 2020, 10:51 pm EDT
Humidity: 93%
Wind Speed: S 13.8 mph
Barometer 29.99 in
Dewpoint: 57.9 F
Visibility: 10.00 mi
Precip: --
Heat Index: NA
Wind Chill: 58 F
Current conditions at:

Albany International Airport, NY (KALB)

Lat: 42.74722 Lon: 73.79912

Local Radar Image active severe weather and emergency alerts image image weather storm and storm spotter reports image weather observation monitoring service image
Local
Radar
Active
Alerts
Storm Reports Obs
Monitoring

Sign-up For Email & Text Message Weather Alert Notification Services



Advertise Here

Observation History for Albany International Airport, NY


Time Wind
(mph)
Vis
(mi)
Weather Precip (in) Temperature (F) Relative
Humidity
Wind
Chill
(F)
Heat
Index
(F)
Pressure
Air Dwpt altimeter
(in)
sea level
(mb)
Rmks
10:51 pm EDT S 13.8 10.00 A Few Clouds -- 60.0 57.9 93% 58 NA 29.99 1015.4
9:51 pm EDT S 11.5 10.00 Fair -- 61.0 57.9 90% 59 NA 30.00 1015.9
8:51 pm EDT SE 13.8 G 26.5 10.00 Fair -- 62.0 57.9 86% 60 NA 30.00 1016.0
7:51 pm EDT SE 15.0 G 21.9 10.00 A Few Clouds -- 63.0 57.9 84% 61 NA 30.02 1016.3
6:51 pm EDT SE 16.1 G 24.2 10.00 A Few Clouds -- 66.0 57.9 75% NA NA 30.01 1016.4
5:51 pm EDT S 17.3 G 23.0 10.00 A Few Clouds -- 68.0 57.9 70% NA NA 30.02 1016.3
4:51 pm EDT SE 16.1 G 25.3 10.00 A Few Clouds -- 70.0 57.9 66% NA NA 30.02 1016.6
3:51 pm EDT S 16.1 G 26.5 10.00 A Few Clouds -- 72.0 57.9 61% NA NA 30.03 1017.0
2:51 pm EDT S 17.3 G 26.5 10.00 A Few Clouds -- 72.0 57.9 61% NA NA 30.06 1017.7
1:51 pm EDT S 16.1 G 25.3 10.00 Partly Cloudy -- 72.0 60.1 66% NA NA 30.08 1018.4
12:51 pm EDT S 15.0 G 26.5 10.00 Partly Cloudy -- 71.0 60.1 68% NA NA 30.11 1019.6
11:51 am EDT S 17.3 G 27.6 10.00 Partly Cloudy -- 69.0 61.0 76% NA NA 30.14 1020.7
10:51 am EDT S 13.8 G 23.0 6.00 Fog/Mist -- 65.0 62.1 90% NA NA 30.17 1021.6
9:51 am EDT SE 11.5 2.00 Fog/Mist -- 62.0 61.0 96% 61 NA 30.19 1022.4
8:51 am EDT S 10.4 1.50 Fog/Mist -- 61.0 61.0 100% 60 NA 30.21 1023.1
7:51 am EDT S 6.9 2.00 Fog/Mist -- 59.0 59.0 100% 58 NA 30.20 1022.8
6:51 am EDT N 0.0 10.00 Overcast -- 54.0 53.1 97% NA NA 30.20 1022.7
5:51 am EDT N 0.0 10.00 Overcast -- 54.0 54.0 100% NA NA 30.19 1022.5
4:51 am EDT N 0.0 10.00 Overcast -- 54.0 53.1 97% NA NA 30.18 1021.9
3:51 am EDT NW 3.5 10.00 Overcast -- 54.0 53.1 97% NA NA 30.18 1021.8
2:51 am EDT N 0.0 10.00 Overcast -- 54.0 54.0 100% NA NA 30.18 1022.1
1:51 am EDT N 0.0 10.00 Overcast -- 54.0 54.0 100% NA NA 30.19 1022.4
12:51 am EDT N 0.0 10.00 Mostly Cloudy -- 53.0 53.1 100% NA NA 30.21 1023.0
11:51 pm EDT N 0.0 10.00 A Few Clouds -- 52.0 52.0 100% NA NA 30.22 1023.3

Regional Weather Observation


Albany International Airport, NY (KALB)

A Few Clouds
60.0 F

Bennington Morse State Airport, VT (KDDH)

Partly Cloudy
56.0 F

Glens Falls, Floyd Bennett Memorial Airport, NY (KGFL)

Fair
62.0 F

North Adams Harriman-and-West Airport, MA (KAQW)

Overcast
66.0 F

Pittsfield Municipal Airport, MA (KPSF)

Overcast
62.0 F

Middlebury State Airport, VT (K6B0)

Fair
64.0 F